Weather History for KALS - January, 2015

Change the Weather History Date:

Thursday, January 22, 2015

  Actual Average Record
Temperature  
Mean Temperature 12 °F 16 °F  
Max Temperature 29 °F 35 °F 58 °F (1951)
Min Temperature -5 °F -2 °F -31 °F (1959)
Degree Days  
Heating Degree Days 53 48  
Month to date heating degree days 915 1077  
Since 1 July heating degree days 4067 4714  
Cooling Degree Days 0 0  
Month to date cooling degree days 0 0  
Year to date cooling degree days 0 0  
Moisture  
Dew Point 5 °F    
Average Humidity 61    
Maximum Humidity 87    
Minimum Humidity 35    
Precipitation  
Precipitation 0.02 in 0.01 in 0.22 in (1939)
Month to date precipitation 0.11 0.18  
Year to date precipitation 0.11 0.18  
Snow  
Snow 0.30 in 0.20 in 4.00 in (1939)
Month to date snowfall 1.1 2.7  
Since 1 July snowfall 5.0 13.0  
Snow Depth T in    
Sea Level Pressure  
Sea Level Pressure 30.38 in    
Wind  
Wind Speed 5 mph (WNW)    
Max Wind Speed 23 mph    
Max Gust Speed 29 mph    
Visibility 9 miles    
Events Snow    
T = Trace of Precipitation, MM = Missing Value Source: NWS Daily Summary

Daily Weather History Graph

Daily Weather History Graph

Search for Another Location

Airport or City:

Trip Planner

Search our weather history database for the weather conditions in past years. The results will help you decide how hot, cold, wet, or windy it might be!

Date:

Astronomy

Jan. 22, 2015 Rise Set
Actual Time 7:13 AM MST 5:16 PM MST
Civil Twilight 6:45 AM MST 5:44 PM MST
Nautical Twilight 6:13 AM MST 6:16 PM MST
Astronomical Twilight 5:42 AM MST 6:47 PM MST
Moon 8:31 AM MST (1/22) 8:14 PM MST (1/22)
Length of Visible Light 10h 58m
Length of Day
10h 02m
Waxing Crescent, 7% of the Moon is Illuminated
Jan 22
Waxing Crescent
Jan 26
First Quarter
Feb 3
Full
Feb 11
Last Quarter
Feb 18
New

Hourly Weather History & Observations

Time (MST) Temp. Windchill Dew Point Humidity Pressure Visibility Wind Dir Wind Speed Gust Speed Precip Events Conditions
12:11 AM 19.0 °F 3.6 °F 5.0 °F 54% 30.16 in 10.0 mi East 18.4 mph 25.3 mph N/A   Overcast
12:30 AM 19.0 °F 10.0 °F 12.0 °F 74% 30.17 in 3.0 mi NE 6.9 mph - 0.00 in Snow Light Snow
12:34 AM 19.0 °F 10.0 °F 12.9 °F 77% 30.17 in 1.8 mi NE 6.9 mph - 0.00 in Snow Light Snow
12:45 AM 19.0 °F 9.0 °F 12.9 °F 77% 30.17 in 2.0 mi North 8.1 mph - 0.00 in Snow Light Snow
12:52 AM 18.0 °F 7.7 °F 14.0 °F 84% 30.25 in 1.8 mi NW 8.1 mph - 0.00 in Snow Light Snow
1:13 AM 18.0 °F 5.4 °F 12.9 °F 81% 30.18 in 2.5 mi West 11.5 mph - 0.01 in Snow Light Snow
1:21 AM 18.0 °F 4.8 °F 12.9 °F 81% 30.18 in 6.0 mi West 12.7 mph - 0.01 in Snow Light Snow
1:52 AM 17.1 °F 2.0 °F 12.0 °F 81% 30.27 in 4.0 mi West 16.1 mph - 0.01 in Snow Light Snow
2:52 AM 15.1 °F 1.8 °F 9.0 °F 77% 30.32 in 10.0 mi West 11.5 mph - 0.00 in   Overcast
3:52 AM 15.8 °F 4.2 °F 6.8 °F 68% 30.22 in 10.0 mi NW 9.2 mph - N/A   Overcast
4:52 AM 12.9 °F 3.8 °F 6.1 °F 74% 30.38 in 10.0 mi WNW 5.8 mph - N/A   Overcast
5:52 AM 5.0 °F -4.1 °F -0.0 °F 80% 30.45 in 10.0 mi NW 4.6 mph - N/A   Partly Cloudy
6:52 AM 1.0 °F - -4.0 °F 79% 30.48 in 10.0 mi Calm Calm - N/A   Clear
7:52 AM 3.9 °F -5.3 °F -0.9 °F 80% 30.50 in 10.0 mi NW 4.6 mph - N/A   Clear
8:52 AM 12.0 °F -0.4 °F 3.9 °F 70% 30.48 in 10.0 mi North 9.2 mph - N/A   Clear
9:52 AM 16.0 °F 7.4 °F 3.9 °F 59% 30.48 in 10.0 mi NNE 5.8 mph - N/A   Clear
10:52 AM 19.0 °F 11.1 °F 6.1 °F 57% 30.47 in 10.0 mi NNW 5.8 mph - N/A   Clear
11:52 AM 23.0 °F 17.0 °F 6.1 °F 48% 30.42 in 10.0 mi NW 4.6 mph - N/A   Clear
12:52 PM 24.1 °F 18.2 °F 6.1 °F 46% 30.39 in 10.0 mi Variable 4.6 mph - N/A   Clear
1:52 PM 24.8 °F - 5.0 °F 43% 30.24 in 10.0 mi Calm Calm - N/A   Clear
2:52 PM 28.0 °F - 5.0 °F 38% 30.35 in 10.0 mi Calm Calm - N/A   Clear
3:52 PM 26.1 °F 17.6 °F 9.0 °F 49% 30.35 in 10.0 mi South 8.1 mph - N/A   Clear
4:52 PM 23.0 °F 15.8 °F 8.1 °F 53% 30.39 in 10.0 mi SSW 5.8 mph - N/A   Clear
5:52 PM 14.0 °F 2.9 °F 5.0 °F 67% 30.24 in 10.0 mi SSW 8.1 mph - N/A   Clear
6:52 PM 10.9 °F 0.2 °F 3.0 °F 70% 30.54 in 10.0 mi West 6.9 mph - N/A   Clear
7:52 PM 6.1 °F - 1.0 °F 80% 30.56 in 10.0 mi Calm Calm - N/A   Clear
8:52 PM 1.9 °F -5.6 °F -2.0 °F 83% 30.54 in 10.0 mi SW 3.5 mph - N/A   Clear
9:52 PM -0.9 °F - -6.0 °F 79% 30.53 in 10.0 mi Calm Calm - N/A   Clear
10:52 PM -5.1 °F -15.8 °F -9.9 °F 80% 30.56 in 10.0 mi SW 4.6 mph - N/A   Clear
11:52 PM -4.0 °F - -9.9 °F 76% 30.52 in 10.0 mi Calm Calm - N/A   Clear